[[{"header":{"parameterUnit":"m.s-1","parameterCategory":1,"la1":30.2991,"la2":30.254,"lo1":-89.0895,"lo2":-89.0444,"dy":0.0017,"dx":0.0017,"nx":28,"ny":28,"refTime":"2025-03-18T21:00:00:Z","depth":0,"parameterNumber":2,"parameterNumberName":"U-component_of_WINDS"},"data":[0,0,0,0,0,0,0,0,0,0,0,0,0,0,0,0,0,0,0,0,0,0,0,0,0,0,0,0,0,0,0,0,0,0,0,0,0,0,0,0,0,0,0,0,0,0,0,0,0,0,0,0,0,0,0,0,0,0,3.6505,3.6505,0,3.6492,3.6492,3.6492,3.6397,3.6395,3.6393,3.639,3.6383,3.6384,3.6386,0,0,0,0,0,0,0,0,0,0,0,0,0,3.6452,3.6454,3.6505,3.6505,3.6504,3.6492,3.6492,3.6492,3.6398,3.6395,3.6392,3.6389,3.6382,3.6384,3.6387,0,0,0,0,0,0,0,0,0,0,0,0,0,3.6461,3.6454,3.6505,3.6456,3.6451,3.6492,3.6492,3.6492,3.6398,3.6395,3.6391,3.6388,3.6381,3.6384,3.6387,3.6475,0,0,3.6396,3.6397,0,0,0,0,0,0,0,0,3.6461,3.6463,3.6463,3.6459,3.6454,3.6443,3.6471,3.6487,3.6399,3.6419,3.639,3.6386,3.6406,3.6406,3.6412,3.6475,3.6475,3.6396,3.6398,3.6399,3.64,0,0,0,0,0,0,0,3.646,3.6463,3.65,3.6463,3.6458,3.6436,3.6434,3.6473,3.6432,3.6417,3.641,3.6409,3.6403,3.6409,3.6411,3.6475,3.6396,3.6399,3.6401,3.6402,3.6611,3.6615,0,0,0,0,0,0,3.6466,3.6463,3.65,3.65,3.6449,3.644,3.6437,3.645,3.6431,3.6425,3.6412,3.6405,3.6406,3.6408,3.641,3.6513,3.6399,3.6402,3.6404,3.6607,3.6612,3.6616,0,0,0,0,0,0,3.6465,3.647,3.6501,3.648,3.6482,3.6445,3.646,3.6452,3.6458,3.6428,3.6421,3.6426,3.6403,3.6406,3.646,3.6512,3.6403,3.6406,3.6603,3.6609,3.6614,3.672,0,0,0,0,0,0,3.6464,3.647,3.6502,3.6481,3.6483,3.6549,3.6463,3.6454,3.6463,3.6453,3.6439,3.6434,3.6401,3.6456,3.6463,3.6514,3.6408,3.6598,3.6605,3.6612,3.6711,3.6728,3.6743,0,0,0,0,0,3.6462,3.6533,3.6504,3.6509,3.6522,3.6552,3.6554,3.6513,3.6467,3.65,3.6481,3.6434,3.6505,3.6462,3.6469,3.6522,3.6595,3.6603,3.6612,3.6704,3.6725,3.6742,0,0,0,0,0,0,3.6563,3.6529,3.6497,3.6562,3.6561,3.6536,3.6576,3.6536,3.6548,3.6539,3.6489,3.6487,3.6549,3.6541,3.6494,3.6607,3.6542,3.6552,3.661,3.6629,3.6645,3.6645,3.6411,0,0,0,0,0,3.6592,3.6618,3.6588,3.6649,3.665,3.6613,3.6625,3.6594,3.6591,3.659,3.6574,3.6575,3.6597,3.6613,3.6631,3.671,3.6706,3.675,3.6766,3.6779,3.6788,3.683,3.6849,3.6644,3.6644,3.6644,0,0,3.6654,3.6639,3.6658,3.6669,3.6664,3.6693,3.6613,3.6648,3.6669,3.6595,3.6645,3.6634,3.6631,3.6698,3.6726,3.6693,3.6844,3.6789,3.68,3.6802,3.6841,3.6861,3.6878,3.665,3.6649,3.6648,0,0,3.6781,3.6772,3.6822,3.6818,3.6811,3.6787,3.68,3.6781,3.6771,3.6819,3.6765,3.6791,3.683,3.683,3.6836,3.6965,3.6923,3.6973,3.7055,3.7096,3.7113,3.7127,3.7174,3.7191,3.6983,3.6983,3.6983,0,3.6859,3.6899,3.6853,3.6891,3.6898,3.6831,3.6883,3.6882,3.6883,3.689,3.6852,3.6901,3.6894,3.696,3.6992,3.6998,3.7012,3.6974,3.7114,3.7127,3.714,3.7184,3.7202,3.6989,3.6988,3.6988,3.6987,0,3.6996,3.7025,3.7066,3.7067,3.7079,3.7124,3.7086,3.7104,3.7073,3.7053,3.7104,3.7094,3.711,3.7124,3.7094,3.7187,3.7166,3.7122,3.7055,3.7166,3.7207,3.7224,3.6998,3.6996,3.6994,3.6992,0,0,3.7184,3.716,3.7176,3.7176,3.7164,3.7187,3.723,3.7244,3.7261,3.7264,3.7299,3.7335,3.7294,3.73,3.727,3.7307,3.7411,3.7258,3.7257,3.7287,3.7514,3.7547,3.7567,3.7383,3.7386,3.7388,3.7514,0,3.7306,3.7376,3.7337,3.7413,3.744,3.7378,3.7416,3.7414,3.7397,3.7419,3.7401,3.7427,3.7371,3.7375,3.7408,3.7391,3.7456,3.7382,3.7417,3.7419,3.7419,3.7588,3.7623,3.7743,3.753,3.7533,3.7534,0,3.7458,3.7467,3.7545,3.7529,3.7539,3.7573,3.7584,3.7606,3.7603,3.7589,3.7596,3.7558,3.76,3.7535,3.7594,3.7544,3.7557,3.7551,3.7554,3.7556,3.7483,3.7595,3.7779,3.7798,3.7559,3.7557,3.7555,0,3.7588,3.762,3.7671,3.7673,3.7656,3.7681,3.7676,3.7669,3.7681,3.7692,3.7699,3.7715,3.7724,3.7738,3.7705,3.766,3.7769,3.77,3.7759,3.776,3.7785,3.7784,3.7974,3.7793,3.7793,3.7793,3.7792,0,3.7729,3.7779,3.7729,3.7761,3.7816,3.7772,3.7829,3.7817,3.7812,3.7842,3.779,3.7819,3.7774,3.78,3.7775,3.7828,3.7833,3.7823,3.7816,3.7828,3.7829,3.7835,3.7826,3.7797,3.7796,3.7795,3.7794,0,3.7883,3.7851,3.7903,3.7883,3.7879,3.7921,3.7905,3.7934,3.7914,3.7952,3.7959,3.7929,3.7956,3.7925,3.795,3.7933,3.8005,3.7986,3.8006,3.8,3.8061,3.8056,3.8262,3.8287,3.809,3.8092,3.8094,0,3.7975,3.8012,3.7996,3.8011,3.8008,3.8034,3.8046,3.8005,3.8019,3.802,3.805,3.8072,3.8088,3.8135,3.8116,3.8136,3.8116,3.8187,3.8119,3.813,3.8118,3.8116,3.812,3.8201,3.8204,3.8206,3.8207,0,3.8141,3.8124,3.8141,3.8155,3.817,3.8179,3.8184,3.82,3.8157,3.8176,3.8203,3.8215,3.8241,3.8265,3.8279,3.8275,3.8235,3.8229,3.8244,3.8256,3.8266,3.8262,3.8044,3.8224,3.8223,3.8221,3.822,3.822,3.8267,3.8297,3.8291,3.8313,3.8313,3.8319,3.8346,3.8329,3.835,3.8367,3.8342,3.8376,3.8374,3.8389,3.839,3.8417,3.8387,3.8408,3.8413,3.8419,3.8429,3.8262,3.8419,3.8419,3.8418,3.8418,3.8417,0,3.843,3.8423,3.8444,3.8453,3.8471,3.8431,3.8435,3.8453,3.8483,3.8484,3.8501,3.8533,3.8556,3.8539,3.8559,3.8584,3.8566,3.8591,3.8589,3.8589,3.8454,3.8439,3.8605,3.8605,3.8605,3.8605,3.8605,3.8605,3.8518,3.8568,3.855,3.8601,3.8594,3.8625,3.8631,3.8638,3.8638,3.8676,3.8694,3.8683,3.8678,3.8697,3.8717,3.8712,3.8722,3.8753,3.8742,3.8616,3.8598,3.858,3.8566,3.8756,3.8756,3.8874,3.8875,3.8875]},{"header":{"parameterUnit":"m.s-1","parameterCategory":1,"la1":30.2991,"la2":30.254,"lo1":-89.0895,"lo2":-89.0444,"dy":0.0017,"dx":0.0017,"nx":28,"ny":28,"refTime":"2025-03-18T21:00:00:Z","depth":0,"parameterNumber":3,"parameterNumberName":"V-component_of_WINDS"},"data":[0,0,0,0,0,0,0,0,0,0,0,0,0,0,0,0,0,0,0,0,0,0,0,0,0,0,0,0,0,0,0,0,0,0,0,0,0,0,0,0,0,0,0,0,0,0,0,0,0,0,0,0,0,0,0,0,0,0,5.4363,5.4365,0,5.4608,5.4611,5.4613,5.4645,5.4642,5.464,5.4638,5.4885,5.4894,5.4903,0,0,0,0,0,0,0,0,0,0,0,0,0,5.3918,5.3926,5.4363,5.4366,5.4369,5.4607,5.4611,5.4614,5.4645,5.4642,5.4639,5.4637,5.4882,5.4893,5.4903,0,0,0,0,0,0,0,0,0,0,0,0,0,5.4132,5.3928,5.4362,5.4413,5.442,5.4607,5.4611,5.4615,5.4646,5.4642,5.4639,5.4635,5.4879,5.4892,5.4905,5.5057,0,0,5.4945,5.4951,0,0,0,0,0,0,0,0,5.4119,5.4148,5.4402,5.441,5.4418,5.4592,5.4545,5.4763,5.4646,5.456,5.4638,5.4633,5.479,5.4811,5.4864,5.5068,5.5079,5.4946,5.4954,5.496,5.4964,0,0,0,0,0,0,0,5.4105,5.4137,5.446,5.4406,5.4416,5.4422,5.4449,5.4586,5.4692,5.4567,5.457,5.4599,5.4794,5.4851,5.487,5.5083,5.4946,5.4958,5.4966,5.4971,5.5423,5.5427,0,0,0,0,0,0,5.4081,5.4125,5.4452,5.4467,5.4257,5.4433,5.4463,5.454,5.469,5.471,5.4601,5.4599,5.4831,5.4855,5.4879,5.5067,5.496,5.4972,5.498,5.5419,5.5424,5.5428,0,0,0,0,0,0,5.4071,5.411,5.4442,5.4297,5.434,5.4445,5.4531,5.4546,5.4604,5.4716,5.4735,5.4641,5.4829,5.4861,5.5012,5.5076,5.4978,5.499,5.5414,5.542,5.5426,5.5444,0,0,0,0,0,0,5.4058,5.4106,5.4166,5.4298,5.4347,5.4572,5.4535,5.4554,5.4627,5.4627,5.4759,5.4777,5.4829,5.4993,5.5026,5.5092,5.5,5.5409,5.5417,5.5424,5.5438,5.545,5.546,0,0,0,0,0,5.4042,5.416,5.4169,5.4208,5.4424,5.4576,5.4604,5.4662,5.4632,5.4693,5.4764,5.4773,5.5063,5.5008,5.5045,5.5117,5.5405,5.5414,5.5423,5.5433,5.5447,5.546,0,0,0,0,0,0,5.4032,5.4179,5.419,5.4354,5.4453,5.4581,5.4659,5.4675,5.4783,5.4778,5.4844,5.4874,5.5022,5.5085,5.502,5.5272,5.5231,5.5248,5.5226,5.524,5.5251,5.5233,5.5011,0,0,0,0,0,5.4049,5.4161,5.4283,5.4416,5.4465,5.4553,5.4622,5.4658,5.4762,5.4803,5.4886,5.4986,5.51,5.5173,5.5284,5.5447,5.5475,5.5514,5.5525,5.5533,5.5548,5.5638,5.5656,5.5459,5.5458,5.5458,0,0,5.4085,5.4179,5.4245,5.4416,5.4497,5.461,5.4588,5.4709,5.4794,5.4821,5.497,5.5034,5.515,5.5308,5.5381,5.5364,5.5608,5.5545,5.5551,5.5561,5.5649,5.5668,5.5684,5.5465,5.5464,5.5463,0,0,5.4209,5.4291,5.4412,5.4493,5.4615,5.4673,5.4702,5.4829,5.4873,5.5023,5.5046,5.5147,5.5341,5.5423,5.5489,5.5643,5.5655,5.5677,5.5735,5.5822,5.5837,5.5851,5.5906,5.5925,5.5691,5.5691,5.5691,0,5.4238,5.4411,5.4471,5.4592,5.4666,5.4697,5.4819,5.4894,5.5046,5.5096,5.5074,5.5319,5.5399,5.5576,5.5614,5.5667,5.5701,5.5663,5.583,5.5845,5.5859,5.5912,5.5933,5.5693,5.5693,5.5692,5.5692,0,5.4441,5.456,5.4643,5.479,5.4873,5.4993,5.5071,5.5147,5.5176,5.5235,5.5388,5.5484,5.5615,5.566,5.5688,5.5841,5.5827,5.5817,5.5778,5.5879,5.593,5.5951,5.5696,5.5695,5.5694,5.5694,0,0,5.4566,5.4745,5.4774,5.4841,5.4978,5.5071,5.5192,5.5321,5.5386,5.5489,5.5592,5.5755,5.5747,5.5823,5.5861,5.5937,5.6052,5.5918,5.5922,5.594,5.6226,5.6233,5.6256,5.606,5.6064,5.6068,5.6216,0,5.4706,5.4925,5.4982,5.5167,5.5278,5.5308,5.5414,5.5508,5.5567,5.5669,5.5733,5.5848,5.5829,5.5874,5.5951,5.6022,5.6111,5.6012,5.6156,5.616,5.6127,5.6282,5.629,5.6426,5.6237,5.624,5.6243,0,5.4899,5.5007,5.5204,5.5327,5.5375,5.5469,5.5592,5.5689,5.5796,5.5833,5.5918,5.5948,5.6074,5.6028,5.6202,5.6133,5.6195,5.6239,5.6245,5.6262,5.6208,5.6303,5.6471,5.6491,5.6275,5.6272,5.627,0,5.497,5.5165,5.5309,5.5365,5.5511,5.5577,5.564,5.5744,5.5818,5.5925,5.5973,5.6092,5.6158,5.6249,5.631,5.627,5.6479,5.6437,5.6512,5.6511,5.6556,5.6552,5.6736,5.6594,5.6594,5.6594,5.6593,0,5.5121,5.524,5.5343,5.5431,5.5565,5.5628,5.5759,5.5823,5.5916,5.6016,5.6048,5.6141,5.6216,5.6319,5.6367,5.6503,5.6532,5.6565,5.6577,5.6563,5.6559,5.6605,5.6597,5.6599,5.6598,5.6597,5.6596,0,5.5224,5.5298,5.5456,5.5581,5.5616,5.5709,5.5816,5.5902,5.5961,5.6087,5.612,5.6213,5.6336,5.6406,5.6559,5.6592,5.6744,5.675,5.6708,5.6713,5.6785,5.6777,5.7005,5.7038,5.6874,5.6875,5.6876,0,5.5316,5.5408,5.5544,5.5614,5.568,5.5792,5.5868,5.5933,5.601,5.614,5.621,5.6334,5.6438,5.6631,5.6712,5.6829,5.6839,5.6911,5.6857,5.684,5.6841,5.6835,5.6844,5.692,5.6922,5.6923,5.6924,0,5.547,5.5502,5.5611,5.5733,5.5823,5.5921,5.6019,5.6074,5.6156,5.6241,5.6367,5.6447,5.6605,5.6728,5.6852,5.6916,5.6934,5.694,5.6964,5.6951,5.6923,5.6939,5.6734,5.6935,5.6934,5.6933,5.6932,5.6932,5.5571,5.5655,5.5764,5.5884,5.5964,5.6055,5.6142,5.6213,5.632,5.6454,5.6485,5.6618,5.6722,5.6891,5.6958,5.7062,5.7049,5.7083,5.7092,5.7099,5.7102,5.6906,5.7084,5.7084,5.7084,5.7084,5.7084,0,5.5728,5.58,5.5909,5.6046,5.614,5.6149,5.6258,5.6335,5.6452,5.6549,5.665,5.6794,5.6914,5.7003,5.7125,5.7191,5.7202,5.722,5.7217,5.7231,5.7106,5.7074,5.7209,5.7209,5.7209,5.7209,5.7209,5.7209,5.5821,5.5963,5.6008,5.619,5.626,5.6392,5.6453,5.6536,5.6613,5.6774,5.6874,5.6932,5.7025,5.7154,5.7263,5.7286,5.7329,5.7347,5.7371,5.7253,5.724,5.7227,5.7197,5.7356,5.7356,5.7487,5.7488,5.7489]}]]